Weather in Feni

Bangladesh     23°00′57″N   91°23′34″E
temp.,
°C
wind,
m/s
gust,
m/s
humid.,
%
clouds,
%
prec.,
mm/h
press.,
hPa
HPBL,
m
11 may, tue
tue1100:00+26sse118320 1.9 100712
03:00+25ese11920 0.8 100622
06:00+24se23936 3.4 1007106
09:00+31ssw34595 2.9 10091261
12:00+34ssw55470 2.9 10071763
15:00+33s66474 0.0 10011314
18:00+29sw6968100 0.3 1003631
21:00+23n4990100 8.1 1008408
12 may, wed
wed1200:00+22ene5894100 13.6 1007251
03:00+22e379256 0.2 1005210
06:00+23se1388100 0.2 1006126
09:00+28se126565 0.0 1007598
12:00+33s444556 0.0 10051518
15:00+32ssw55530 0.0 10031368
18:00+29s57685 0.0 1002625
21:00+27s388649 2.6 1004219
13 may, thu
thu1300:00+27wsw3779100 9.4 1005128
03:00+24nnw339199 0.6 1004103
06:00+24e369361 0.6 1005221
09:00+28se45715 0.3 1007665
12:00+32ssw545628 0.7 10061528
15:00+32ssw555551 0.6 10041222
18:00+29ssw3571100 1.4 1003301
21:00+25s6990100 2.8 1004209
14 may, fri
fri1400:00+25se1288100 2.8 100456
03:00+25sse388950 0.9 1003281
06:00+25e239318 2.4 1004129
09:00+29s357421 3.5 1007787
12:00+32ssw665629 3.9 10051559
15:00+32ssw66565 0.1 10031331
18:00+29ssw47730 0.1 1003640
21:00+28s48825 0.2 1004389
15 may, sat
sat1500:00+26ssw49910 1.5 1003276
03:00+26sse23945 1.6 100356
06:00+25se24946 4.5 1005123
09:00+31sse34716 2.1 1007847
12:00+34s545226 3.9 10061768
15:00+33s66540 0.0 10021132
18:00+27nnw238090 1.5 100395
21:00+26w61182100 0.1 1006248